Location: Buchdorf
(48.7842°N, 10.8275°E)
Time: 01:51:02
(UTC+00:00)

N. Korean satellite - Pass Details

Date: 13 March 2021
Orbit: 453 x 499 km, 97.2° (Epoch: 11 April)

Event Time Altitude Azimuth Distance (km) Brightness Sun altitude
Rises 04:01:54 0° 24° (NNE) 2,559 10.8 -15.9°
Reaches altitude 10° 04:04:14 10° 38° (NE) 1,682 10.1 -15.5°
Maximum altitude 04:07:16 25° 95° (E) 1,041 9.1 -15.1°
Drops below altitude 10° 04:10:17 10° 151° (SSE) 1,688 9.5 -14.6°
Sets 04:12:38 0° 165° (SSE) 2,570 10.3 -14.2°
